Weather in Staroye Chamzino

Russia / Republic of Mordovia     55°03′39″N   45°37′11″E
temp.,
°C
wind,
m/s
gust,
m/s
humid.,
%
clouds,
%
prec.,
mm/h
press.,
hPa
HPBL,
m
19 january, wed
wed1900:00−2wsw3798100 1.1 1008402
03:00−6nnw3696100 2.0 1011251
06:00−8nnw4795100 1.1 1012269
09:00−9nnw2496100 1.4 1014190
12:00−10n2494100 0.2 1015180
15:00−12nw229671 0.2 101647
18:00−20wnw1110078 0.0 10179
21:00−20sw1110061 0.0 10189
20 january, thu
thu2000:00−21ssw2210077 0.0 101810
03:00−22ssw22100100 0.0 101924
06:00−21ssw23100100 0.0 101841
09:00−15s41198100 0.1 1017207
12:00−11ssw51394100 0.0 1017322
15:00−11s5139253 0.0 1016328
18:00−13s5149311 0.0 1016279
21:00−14s5149315 0.0 1016279
21 january, fri
fri2100:00−15s5149421 0.0 1016260
03:00−16s5159454 0.0 1016259
06:00−16s5159485 0.0 1016259
09:00−16sse4159597 0.0 1016252
12:00−11sse5169167 0.0 1016396
15:00−9sse6168966 0.0 1014484
18:00−9sse7168797 0.0 1014480
21:00−10se71787100 0.0 1013521
22 january, sat
sat2200:00−9se71793100 0.2 1013571
03:00−8sse71494100 2.0 1012594
06:00−8sse51095100 1.1 1014457
09:00−9se489578 1.4 1016270
12:00−7sse369499 0.1 1017305
15:00−9se249762 0.1 101951
18:00−15ese22100100 0.0 10219
21:00−16ese22100100 0.0 10229
23 january, sun
sun2300:00−15ene21100100 0.0 102310
03:00−9ne2396100 0.1 102385
06:00−8nne2396100 0.9 1023129
09:00−9nnw1197100 1.4 102527
12:00−8nw129698 0.1 102664
15:00−10nnw1198100 0.1 102810
18:00−12n1197100 0.0 10319
21:00−12nne2197100 0.0 103217